Theta_e
301 301 302 302 304 305 306 308 310 311 312 315 318 320 323 325 327 328 328 329 329 330 330 330 330 329 328 328 328 327 326 326 325 325 325 323 322 322 322 322 322 321
300 301 301 302 302 303 304 305 306 309 310 312 314 316 318 322 324 325 325 326 328 328 329 329 330 330 329 329 329 328 327 326 326 327 325 324 323 323 322 322 322 322
300 300 300 300 301 301 302 304 305 307 309 311 313 315 317 319 320 321 323 324 324 325 326 328 328 329 329 328 328 327 326 326 326 327 325 325 325 324 323 323 323 323
299 300 300 300 301 301 302 303 303 305 307 308 309 310 312 313 315 316 318 317 320 322 323 325 326 326 326 327 327 327 327 327 327 327 326 325 324 324 324 324 323 322
298 299 300 300 300 301 301 301 302 303 305 307 308 309 309 310 311 312 314 316 318 319 321 322 324 324 325 326 326 325 325 325 326 326 325 324 325 324 323 323 322 322
297 298 299 299 300 300 300 301 302 303 304 306 307 308 309 310 310 311 311 312 314 315 317 319 320 322 323 324 324 324 325 325 325 325 324 323 324 324 323 323 322 321
296 297 297 298 298 299 299 299 300 300 302 303 305 307 309 309 309 310 311 311 312 312 313 314 317 318 320 321 322 322 323 323 324 324 323 323 323 323 323 322 322 321
296 296 297 297 297 298 298 298 299 299 300 302 303 305 308 308 308 309 310 311 312 312 312 312 313 314 317 319 319 320 320 322 322 322 322 321 322 321 322 322 321 320
295 295 296 296 296 297 297 297 298 298 298 299 301 302 306 307 307 308 308 309 310 312 313 313 313 313 313 315 317 318 319 320 321 321 320 320 320 320 321 321 320 319
294 295 295 295 295 295 296 297 297 297 298 298 299 301 303 305 306 306 306 307 308 310 311 312 312 313 313 314 314 315 317 318 319 320 320 320 320 320 320 320 319 318
293 293 293 293 294 295 295 296 296 297 297 297 298 300 303 304 304 304 304 305 306 308 309 309 310 312 312 313 314 315 316 317 318 319 320 319 320 320 313 319 318 317
292 292 292 293 293 294 294 295 296 296 296 297 297 298 301 303 303 303 303 303 304 305 306 307 308 310 311 313 314 315 316 317 317 318 318 316 315 316 317 317 316 314
291 291 292 293 293 293 294 294 294 295 295 295 297 297 299 300 302 302 302 302 303 303 304 304 305 307 308 311 313 314 315 315 312 306 301 300 300 300 301 303 306 306
290 291 292 292 292 293 294 294 294 294 294 295 296 296 297 299 300 300 301 300 300 301 302 303 303 304 306 308 311 311 309 307 304 300 297 296 295 294 294 294 295 296
290 291 291 292 292 292 292 293 293 293 294 294 294 294 296 298 299 299 299 298 299 299 300 301 302 303 305 306 306 305 304 302 299 297 296 294 292 290 290 290 291 291
289 290 290 290 290 291 292 292 292 293 293 293 293 294 295 296 297 298 297 297 297 298 298 299 300 302 298 296 297 304 303 300 297 295 293 292 290 289 287 287 287 287
288 288 289 289 290 290 291 291 291 292 292 293 293 293 294 294 296 296 296 297 297 296 296 297 299 299 294 295 296 296 299 297 294 293 292 290 290 289 286 286 286 286
287 287 287 288 288 289 289 290 291 291 291 291 292 292 292 293 293 294 295 296 296 296 295 295 296 294 293 294 295 294 293 295 294 291 290 289 288 287 286 286 286 286
286 286 287 287 288 288 289 289 289 289 290 290 290 291 292 292 292 293 294 294 294 294 294 294 294 293 293 293 293 293 292 292 292 291 288 287 287 287 286 286 286 286
285 285 285 286 287 288 288 289 288 288 289 290 290 290 291 291 292 292 293 293 293 293 293 293 293 291 292 292 292 292 292 290 289 288 288 287 286 286 286 286 285 286
284 284 285 286 286 287 287 288 288 288 288 289 289 289 290 290 291 291 291 291 291 292 292 292 292 290 291 291 291 291 290 288 287 287 286 286 286 286 286 285 286 285
284 284 284 285 285 286 286 287 287 287 287 288 288 289 290 290 291 291 290 290 290 291 290 290 291 290 291 290 290 290 289 287 287 286 285 285 285 285 285 285 285 285
283 283 283 284 284 285 285 286 286 286 286 288 287 288 288 289 289 290 290 290 289 289 289 289 290 289 290 290 289 289 288 286 285 285 285 284 284 284 284 284 284 284
283 283 283 283 284 284 284 285 286 286 287 287 286 286 287 288 289 289 289 289 288 288 289 289 289 288 288 289 289 288 286 285 285 284 284 284 284 284 283 283 284 284
283 283 283 283 283 284 284 284 285 285 287 287 287 287 287 288 288 288 288 288 288 288 287 287 288 287 288 288 287 287 286 285 284 284 283 283 282 282 283 283 283 284
282 283 283 283 283 283 284 284 285 285 286 286 286 286 286 287 287 287 287 287 287 287 287 287 287 287 286 287 287 286 286 285 285 283 282 282 282 282 281 282 282 282
Wind_Speed
14 13 13 14 13 12 14 14 13 13 12 11 11 12 11 11 11 11 12 11 13 12 11 11 11 11 10 10 11 11 12 12 12 12 13 12 13 15 14 15 15 14
17 15 13 13 12 12 13 13 14 13 13 12 11 11 11 11 12 12 12 13 13 13 13 12 12 12 13 12 13 13 13 13 14 11 14 16 13 13 15 17 17 16
17 17 17 17 15 17 16 14 13 13 12 13 13 11 10 10 10 11 11 10 11 12 12 12 13 12 12 12 13 13 14 15 16 14 14 16 15 14 14 15 15 18
18 17 16 16 16 17 16 14 14 12 12 12 13 12 12 11 11 12 11 11 11 10 10 10 11 10 11 11 12 14 15 15 16 15 15 13 14 15 15 13 13 14
18 18 16 16 15 16 15 15 16 15 14 13 13 12 11 11 12 12 11 11 11 12 11 11 11 12 12 12 14 14 15 14 14 14 13 14 13 13 14 14 14 14
17 16 16 16 16 16 16 16 16 16 17 17 15 13 12 12 11 12 12 12 12 12 13 12 12 12 12 12 13 14 15 15 15 13 14 16 13 10 12 13 15 14
20 18 20 17 18 17 16 16 16 16 15 15 16 15 14 14 13 13 13 12 13 12 12 12 13 13 12 12 13 15 15 16 16 14 14 16 12 13 13 14 14 14
20 18 17 18 19 18 17 17 17 16 16 17 16 17 15 16 15 13 12 13 13 13 14 13 12 13 13 12 14 15 15 11 12 16 15 15 14 15 14 11 12 13
18 18 18 21 21 18 18 18 17 18 16 17 17 17 16 14 15 15 15 15 15 15 13 13 12 12 12 13 14 15 15 14 13 15 15 14 14 15 14 13 11 12
19 19 20 19 20 18 20 20 19 17 17 17 17 16 17 15 14 15 15 15 15 14 13 12 12 11 11 11 14 15 15 15 14 14 13 14 14 14 13 12 12 12
19 19 19 21 20 18 21 22 20 18 17 17 17 17 17 16 16 14 15 15 14 14 14 13 13 12 12 12 12 12 14 13 13 12 12 14 12 12 11 11 10 11
19 19 19 21 20 20 21 20 19 19 19 17 17 19 18 16 16 15 14 16 16 15 14 14 13 13 13 13 12 11 11 12 12 12 11 9 8 8 9 10 10 10
19 19 18 18 19 19 18 18 19 20 19 19 18 18 18 18 17 17 16 14 15 14 15 14 14 13 13 14 12 12 11 10 9 6 3 2 2 2 2 3 4 6
17 18 18 18 18 18 19 19 18 21 20 18 18 19 18 18 18 18 17 13 12 13 14 13 14 14 13 14 12 11 8 7 4 3 2 2 2 2 3 3 3 3
17 16 16 18 19 19 19 19 20 19 21 21 19 18 16 17 17 17 18 15 13 13 14 12 12 13 12 11 10 9 5 4 3 4 4 5 5 4 4 5 6 6
17 16 17 18 19 19 19 19 19 20 19 19 20 19 18 17 17 17 16 15 14 13 11 11 11 9 11 15 13 8 7 4 5 5 6 6 7 7 6 6 6 7
17 16 17 18 19 19 19 20 20 19 19 20 20 18 19 18 17 18 16 13 13 13 13 11 10 10 14 13 14 10 7 5 5 6 7 7 8 9 8 7 7 7
17 18 18 18 18 19 20 20 19 20 20 20 20 21 18 17 18 17 16 15 12 13 11 12 10 13 14 13 11 9 7 6 6 7 7 8 8 9 9 9 8 8
17 18 18 18 18 18 17 18 20 20 20 20 21 20 19 19 17 16 15 14 13 13 12 12 12 13 12 12 10 9 9 8 6 7 8 8 9 9 11 12 11 9
17 18 19 19 19 18 18 18 19 19 19 19 18 19 19 19 18 17 16 15 13 12 11 11 11 10 9 9 9 9 11 8 5 6 7 6 6 5 5 8 11 11
16 17 19 19 19 19 19 19 19 18 19 18 17 18 19 18 19 17 15 15 14 13 11 12 10 8 8 7 8 11 11 7 7 7 7 7 8 7 5 4 2 1
17 17 18 19 20 20 20 20 19 18 18 18 17 17 17 17 15 12 14 15 14 12 11 11 9 7 7 7 7 9 13 7 7 9 8 8 8 8 8 5 3 2
17 17 18 19 19 20 21 20 20 20 18 15 17 18 17 17 16 14 13 13 13 12 10 10 8 7 8 8 9 10 11 6 6 8 7 7 5 6 7 6 4 2
17 17 18 19 19 20 21 20 19 17 17 15 17 18 18 16 15 15 13 12 12 12 10 9 8 7 9 10 11 11 5 7 7 9 9 8 8 7 6 7 7 6
16 17 17 19 20 20 19 21 20 18 17 16 16 16 17 16 13 12 13 11 11 11 10 9 7 6 9 10 11 12 10 9 9 8 10 8 8 9 8 7 6 6
16 17 17 18 19 21 20 20 19 18 18 18 17 15 15 15 13 12 13 12 9 8 8 7 6 5 6 10 11 13 10 7 7 11 10 10 9 10 10 7 6 7
Wind_Direction
347 346 340 336 334 333 330 328 325 321 317 314 309 307 304 302 298 288 283 278 273 265 254 245 236 235 231 231 231 234 239 237 237 238 235 228 230 229 228 228 227 227
348 345 341 339 335 334 330 327 321 317 314 312 311 306 302 301 297 292 287 280 274 268 266 260 255 252 250 249 244 241 241 239 239 232 233 229 226 226 227 227 228 229
348 348 347 344 338 333 330 325 320 317 315 315 313 313 314 311 307 301 294 284 278 274 269 267 264 258 252 244 248 245 241 242 243 239 234 235 231 228 228 225 227 227
345 345 342 340 338 334 332 328 324 319 317 314 314 313 313 311 308 303 296 290 282 274 267 258 253 253 249 244 241 247 248 245 245 243 240 239 236 233 232 227 227 226
341 340 339 337 336 334 331 328 326 321 316 314 309 309 308 306 306 306 303 297 291 286 280 273 263 256 253 250 247 249 250 250 248 243 243 243 238 232 233 231 228 223
341 339 338 336 335 335 333 332 329 328 325 320 317 311 307 305 302 299 298 297 296 291 286 280 273 267 261 257 254 250 250 249 247 240 240 242 239 227 232 228 227 226
339 340 338 336 335 335 333 331 329 326 322 317 314 309 309 308 307 303 298 294 290 286 286 284 280 272 264 260 256 254 250 250 250 244 239 243 239 237 232 231 228 226
336 336 337 335 335 334 333 332 330 328 325 318 314 310 308 307 307 306 301 297 292 287 284 278 276 280 276 265 257 254 251 246 245 244 241 244 243 241 236 229 226 225
335 336 336 337 335 334 332 332 330 328 326 319 313 310 306 304 305 305 303 298 294 289 284 274 261 260 266 271 266 259 255 251 246 245 243 241 241 242 240 234 225 224
336 336 335 336 334 331 329 330 328 325 324 321 314 308 305 304 304 305 303 299 294 290 285 280 275 265 257 251 259 264 261 258 254 249 246 243 243 242 236 226 224 225
335 337 335 333 332 329 327 326 325 323 322 320 317 309 305 305 306 306 304 301 298 295 293 289 286 279 271 263 255 253 256 256 252 249 248 248 244 239 231 228 226 225
335 335 333 332 329 327 326 324 323 322 321 319 319 313 305 302 302 303 302 301 299 297 294 291 290 287 282 275 265 258 253 251 249 248 246 245 247 242 235 226 223 216
333 332 330 327 327 326 323 321 321 322 320 318 316 312 306 302 300 300 299 295 294 295 294 294 291 288 283 279 273 264 255 251 245 235 135 10 353 326 328 278 218 192
331 329 326 325 325 322 321 320 320 321 318 316 315 312 305 300 299 301 299 293 293 291 290 291 289 287 282 278 272 267 261 245 221 158 125 104 70 36 23 34 43 70
327 326 324 324 323 322 321 320 319 319 320 317 314 310 305 299 297 297 297 295 291 289 290 290 287 284 282 279 268 251 236 197 171 156 143 140 121 81 45 47 58 57
324 323 323 322 321 320 319 319 319 317 315 313 312 308 306 302 298 295 293 289 290 290 289 289 286 282 279 277 268 250 221 189 156 156 151 144 135 119 84 68 69 76
326 322 321 322 320 318 318 316 317 317 314 313 311 309 307 305 298 296 293 287 289 290 290 286 284 282 285 279 262 243 218 188 164 154 155 142 140 136 123 117 103 101
324 323 322 319 318 316 316 317 315 316 315 313 312 310 307 303 298 294 291 290 289 287 283 284 283 282 281 268 245 216 188 174 164 161 150 148 139 132 130 128 124 121
322 321 319 316 315 314 312 313 314 312 314 314 312 309 305 302 296 292 289 289 287 285 281 282 282 283 275 255 226 196 176 161 162 152 145 145 143 141 141 139 137 126
321 320 316 314 313 311 311 310 311 309 309 310 308 307 304 302 299 292 290 289 287 283 280 278 276 280 262 240 210 182 170 163 134 134 137 120 115 106 120 143 143 141
319 318 315 312 311 310 309 307 307 308 308 310 309 306 304 302 300 297 291 288 286 282 276 274 270 271 249 223 204 179 161 131 110 106 112 113 112 105 84 84 24 49
319 316 314 312 311 309 308 306 305 307 308 309 307 304 299 295 287 282 283 283 282 279 274 268 264 252 221 204 197 178 145 123 123 125 124 125 122 118 112 90 61 40
317 314 312 309 309 307 307 305 305 305 307 308 305 302 299 296 293 286 282 281 281 276 266 263 262 237 208 188 178 168 153 134 116 114 115 108 94 92 97 92 93 129
312 311 308 307 307 305 305 304 303 301 300 304 302 300 296 293 292 289 282 276 273 270 261 260 256 228 205 190 177 176 175 144 134 124 112 109 101 83 84 80 78 85
308 306 306 305 306 303 304 303 302 301 300 301 299 295 290 290 288 282 281 273 267 265 264 253 247 224 193 184 171 163 156 149 139 126 123 121 120 110 100 97 83 70
305 303 302 303 303 302 302 300 299 299 298 302 300 295 292 289 283 278 275 274 266 260 255 239 232 211 193 178 170 167 168 159 156 145 136 130 127 124 118 109 100 96